Year,Month,Day,Hour,Minute,Value (Times are PST for temperature in C)
2009,08,31,07,55,12.90
2009,08,31,07,56,12.90
2009,08,31,07,57,13.00
2009,08,31,07,58,13.10
2009,08,31,07,59,13.20
2009,08,31,08,00,13.20
2009,08,31,08,01,13.30
2009,08,31,08,02,13.30
2009,08,31,08,03,13.40
2009,08,31,08,04,13.40
2009,08,31,08,05,13.50
2009,08,31,08,06,13.60
2009,08,31,08,07,13.70
2009,08,31,08,08,13.70
2009,08,31,08,09,13.80
2009,08,31,08,10,13.90
2009,08,31,08,11,13.90
2009,08,31,08,12,14.00
2009,08,31,08,13,14.00
2009,08,31,08,14,14.10
2009,08,31,08,15,14.10
2009,08,31,08,16,14.10
2009,08,31,08,17,14.20
2009,08,31,08,18,14.20
2009,08,31,08,19,14.30
2009,08,31,08,20,14.30
2009,08,31,08,21,14.40
2009,08,31,08,22,14.50
2009,08,31,08,23,14.60
2009,08,31,08,24,14.70
2009,08,31,08,25,14.80
2009,08,31,08,26,14.90
2009,08,31,08,27,15.00
2009,08,31,08,28,15.00
2009,08,31,08,29,15.00
2009,08,31,08,30,15.10
2009,08,31,08,31,15.20
2009,08,31,08,32,15.30
2009,08,31,08,33,15.40
2009,08,31,08,34,15.50
2009,08,31,08,35,15.60
2009,08,31,08,36,15.70
2009,08,31,08,37,15.70
2009,08,31,08,38,15.80
2009,08,31,08,39,15.80
2009,08,31,08,40,15.90
2009,08,31,08,41,15.90
2009,08,31,08,42,16.00
2009,08,31,08,43,16.00
2009,08,31,08,44,16.10
2009,08,31,08,45,16.10
2009,08,31,08,46,16.10
2009,08,31,08,47,16.10
2009,08,31,08,48,16.20
2009,08,31,08,49,16.20
2009,08,31,08,50,16.30
2009,08,31,08,51,16.30
2009,08,31,08,52,16.40
2009,08,31,08,53,16.50
2009,08,31,08,54,16.60
2009,08,31,08,55,16.70
2009,08,31,08,56,16.80
2009,08,31,08,57,16.80
2009,08,31,08,58,16.90
2009,08,31,08,59,16.90
2009,08,31,09,00,17.00
2009,08,31,09,01,17.10
2009,08,31,09,02,17.20
2009,08,31,09,03,17.20
2009,08,31,09,04,17.30
2009,08,31,09,05,17.40
2009,08,31,09,06,17.50
2009,08,31,09,07,17.60
2009,08,31,09,08,17.70
2009,08,31,09,09,17.80
2009,08,31,09,10,18.00
2009,08,31,09,11,18.10
2009,08,31,09,12,18.20
2009,08,31,09,13,18.30
2009,08,31,09,14,18.40
2009,08,31,09,15,18.40
2009,08,31,09,16,18.50
2009,08,31,09,17,18.60
2009,08,31,09,18,18.60
2009,08,31,09,19,18.60
2009,08,31,09,20,18.60
2009,08,31,09,21,18.60
2009,08,31,09,22,18.50
2009,08,31,09,23,18.50
2009,08,31,09,24,18.50
2009,08,31,09,25,18.60
2009,08,31,09,26,18.60
2009,08,31,09,27,18.70
2009,08,31,09,28,18.80
2009,08,31,09,29,18.80
2009,08,31,09,30,18.80
2009,08,31,09,31,18.90
2009,08,31,09,32,19.00
2009,08,31,09,33,19.00
2009,08,31,09,34,19.00
2009,08,31,09,35,18.90
2009,08,31,09,36,18.90
2009,08,31,09,37,18.80
2009,08,31,09,38,18.80
2009,08,31,09,39,18.80
2009,08,31,09,40,18.80
2009,08,31,09,41,18.90
2009,08,31,09,42,18.90
2009,08,31,09,43,18.90
2009,08,31,09,44,18.90
2009,08,31,09,45,18.90
2009,08,31,09,46,19.00
2009,08,31,09,47,19.10
2009,08,31,09,48,19.20
2009,08,31,09,49,19.20
2009,08,31,09,50,19.30
2009,08,31,09,51,19.30
2009,08,31,09,52,19.40
2009,08,31,09,53,19.50
2009,08,31,09,54,19.60
2009,08,31,09,55,19.60
2009,08,31,09,56,19.60
2009,08,31,09,57,19.50
2009,08,31,09,58,19.40
2009,08,31,09,59,19.40
2009,08,31,10,00,19.50
2009,08,31,10,01,19.60
2009,08,31,10,02,19.70
2009,08,31,10,03,19.70
2009,08,31,10,04,19.70
2009,08,31,10,05,19.70
2009,08,31,10,06,19.70
2009,08,31,10,07,19.70
2009,08,31,10,08,19.60
2009,08,31,10,09,19.60
2009,08,31,10,10,19.50
2009,08,31,10,11,19.50
2009,08,31,10,12,19.50
2009,08,31,10,13,19.50
2009,08,31,10,14,19.40
2009,08,31,10,15,19.40
2009,08,31,10,16,19.40
2009,08,31,10,17,19.40
2009,08,31,10,18,19.40
2009,08,31,10,19,19.50
2009,08,31,10,20,19.60
2009,08,31,10,21,19.70
2009,08,31,10,22,19.80
2009,08,31,10,23,19.80
2009,08,31,10,24,19.80
2009,08,31,10,25,19.80
2009,08,31,10,26,19.80
2009,08,31,10,27,19.90
2009,08,31,10,28,20.00
2009,08,31,10,29,20.00
2009,08,31,10,30,20.10
2009,08,31,10,31,20.00
2009,08,31,10,32,19.90
2009,08,31,10,33,19.90
2009,08,31,10,34,19.90
2009,08,31,10,35,20.00
2009,08,31,10,36,20.00
2009,08,31,10,37,20.00
2009,08,31,10,38,20.10
2009,08,31,10,39,20.10
2009,08,31,10,40,20.00
2009,08,31,10,41,20.00
2009,08,31,10,42,19.90
2009,08,31,10,43,19.90
2009,08,31,10,44,19.80
2009,08,31,10,45,19.80
2009,08,31,10,46,19.70
2009,08,31,10,47,19.80
2009,08,31,10,48,19.80
2009,08,31,10,49,19.80
2009,08,31,10,50,19.80
2009,08,31,10,51,19.70
2009,08,31,10,52,19.70
2009,08,31,10,53,19.70
2009,08,31,10,54,19.70
2009,08,31,10,55,19.60
2009,08,31,10,56,19.70
2009,08,31,10,57,19.70
2009,08,31,10,58,19.80
2009,08,31,10,59,19.70
2009,08,31,11,00,19.80
2009,08,31,11,01,19.80
2009,08,31,11,02,19.90
2009,08,31,11,03,20.00
2009,08,31,11,04,20.00
2009,08,31,11,05,20.10
2009,08,31,11,06,20.20
2009,08,31,11,07,20.20
2009,08,31,11,08,20.30
2009,08,31,11,09,20.30
2009,08,31,11,10,20.30
2009,08,31,11,11,20.30
2009,08,31,11,12,20.30
2009,08,31,11,13,20.40
2009,08,31,11,14,20.40
2009,08,31,11,15,20.50
2009,08,31,11,16,20.40
2009,08,31,11,17,20.30
2009,08,31,11,18,20.20
2009,08,31,11,19,20.20
2009,08,31,11,20,20.00
2009,08,31,11,21,19.90
2009,08,31,11,22,19.80
2009,08,31,11,23,19.80
2009,08,31,11,24,19.80
2009,08,31,11,25,19.90
2009,08,31,11,26,20.00
2009,08,31,11,27,20.10
2009,08,31,11,28,20.10
2009,08,31,11,29,20.10
2009,08,31,11,30,20.00
2009,08,31,11,31,19.90
2009,08,31,11,32,20.00
2009,08,31,11,33,20.10
2009,08,31,11,34,20.30
2009,08,31,11,35,20.40
2009,08,31,11,36,20.50
2009,08,31,11,37,20.50
2009,08,31,11,38,20.50
2009,08,31,11,39,20.40
2009,08,31,11,40,20.50
2009,08,31,11,41,20.60
2009,08,31,11,42,20.80
2009,08,31,11,43,20.90
2009,08,31,11,44,21.00
2009,08,31,11,45,20.90
2009,08,31,11,46,21.00
2009,08,31,11,47,21.00
2009,08,31,11,48,21.00
2009,08,31,11,49,21.00
2009,08,31,11,50,21.10
2009,08,31,11,51,21.00
2009,08,31,11,52,21.00
2009,08,31,11,53,20.90
2009,08,31,11,54,21.00
2009,08,31,11,55,21.00
2009,08,31,11,56,21.00
2009,08,31,11,57,20.90
2009,08,31,11,58,20.90
2009,08,31,11,59,21.00
2009,08,31,12,00,21.00
2009,08,31,12,01,21.00
2009,08,31,12,02,21.00
2009,08,31,12,03,21.10
2009,08,31,12,04,21.10
2009,08,31,12,05,21.10
2009,08,31,12,06,21.00
2009,08,31,12,07,21.10
2009,08,31,12,08,21.10
2009,08,31,12,09,21.00
2009,08,31,12,10,21.00
2009,08,31,12,11,21.10
2009,08,31,12,12,21.10
2009,08,31,12,13,21.20
2009,08,31,12,14,21.30
2009,08,31,12,15,21.30
2009,08,31,12,16,21.20
2009,08,31,12,17,21.20
2009,08,31,12,18,21.20
2009,08,31,12,19,21.20
2009,08,31,12,20,21.30
2009,08,31,12,21,21.30
2009,08,31,12,22,21.30
2009,08,31,12,23,21.30
2009,08,31,12,24,21.30
2009,08,31,12,25,21.30
2009,08,31,12,26,21.30
2009,08,31,12,27,21.40
2009,08,31,12,28,21.40
2009,08,31,12,29,21.40
2009,08,31,12,30,21.30
2009,08,31,12,31,21.20
2009,08,31,12,32,21.20
2009,08,31,12,33,21.20
2009,08,31,12,34,21.30
2009,08,31,12,35,21.30
2009,08,31,12,36,21.30
2009,08,31,12,37,21.30
2009,08,31,12,38,21.40
2009,08,31,12,39,21.50
2009,08,31,12,40,21.60
2009,08,31,12,41,21.60
2009,08,31,12,42,21.70
2009,08,31,12,43,21.60
2009,08,31,12,44,21.60
2009,08,31,12,45,21.60
2009,08,31,12,46,21.50
2009,08,31,12,47,21.30
2009,08,31,12,48,21.30
2009,08,31,12,49,21.30
2009,08,31,12,50,21.20
2009,08,31,12,51,21.30
2009,08,31,12,52,21.30
2009,08,31,12,53,21.30
2009,08,31,12,54,21.50
2009,08,31,12,55,21.60
2009,08,31,12,56,21.50
2009,08,31,12,57,21.50
2009,08,31,12,58,21.50
2009,08,31,12,59,21.50
2009,08,31,13,00,21.50
2009,08,31,13,01,21.40
2009,08,31,13,02,21.40
2009,08,31,13,03,21.30
2009,08,31,13,04,21.20
2009,08,31,13,05,21.30
2009,08,31,13,06,21.30
2009,08,31,13,07,21.30
2009,08,31,13,08,21.30
2009,08,31,13,09,21.20
2009,08,31,13,10,21.20
2009,08,31,13,11,21.10
2009,08,31,13,12,21.10
2009,08,31,13,13,21.10
2009,08,31,13,14,21.10
2009,08,31,13,15,21.30
2009,08,31,13,16,21.30
2009,08,31,13,17,21.40
2009,08,31,13,18,21.50
2009,08,31,13,19,21.60
2009,08,31,13,20,21.70
2009,08,31,13,21,21.80
2009,08,31,13,22,21.90
2009,08,31,13,23,21.90
2009,08,31,13,24,22.00
2009,08,31,13,25,22.00
2009,08,31,13,26,21.90
2009,08,31,13,27,22.00
2009,08,31,13,28,22.00
2009,08,31,13,29,22.00
2009,08,31,13,30,22.00
2009,08,31,13,31,22.00
2009,08,31,13,32,22.00
2009,08,31,13,33,21.90
2009,08,31,13,34,21.80
2009,08,31,13,35,21.80
2009,08,31,13,36,21.70
2009,08,31,13,37,21.60
2009,08,31,13,38,21.60
2009,08,31,13,39,21.50
2009,08,31,13,40,21.30
2009,08,31,13,41,21.20
2009,08,31,13,42,21.10
2009,08,31,13,43,21.10
2009,08,31,13,44,21.10
2009,08,31,13,45,21.20
2009,08,31,13,46,21.30
2009,08,31,13,47,21.40
2009,08,31,13,48,21.50
2009,08,31,13,49,21.40
2009,08,31,13,50,21.30
2009,08,31,13,51,21.40
2009,08,31,13,52,21.60
2009,08,31,13,53,21.70
2009,08,31,13,54,21.70
2009,08,31,13,55,21.80
2009,08,31,13,56,21.90
2009,08,31,13,57,21.90
2009,08,31,13,58,21.90
2009,08,31,13,59,21.90
2009,08,31,14,00,21.90
2009,08,31,14,01,21.80
2009,08,31,14,02,21.80
2009,08,31,14,03,21.60
2009,08,31,14,04,21.60
2009,08,31,14,05,21.60
2009,08,31,14,06,21.60
2009,08,31,14,07,21.70
2009,08,31,14,08,21.70
2009,08,31,14,09,21.70
2009,08,31,14,10,21.70
2009,08,31,14,11,21.70
2009,08,31,14,12,21.70
2009,08,31,14,13,21.60
2009,08,31,14,14,21.60
2009,08,31,14,15,21.60
2009,08,31,14,16,21.60
2009,08,31,14,17,21.60
2009,08,31,14,18,21.50
2009,08,31,14,19,21.30
2009,08,31,14,20,21.50
2009,08,31,14,21,21.60
2009,08,31,14,22,21.80
2009,08,31,14,23,21.70
2009,08,31,14,24,21.70
2009,08,31,14,25,21.80
2009,08,31,14,26,21.80
2009,08,31,14,27,21.70
2009,08,31,14,28,21.70
2009,08,31,14,29,21.80
2009,08,31,14,30,21.80
2009,08,31,14,31,21.70
2009,08,31,14,32,21.60
2009,08,31,14,33,21.60
2009,08,31,14,34,21.50
2009,08,31,14,35,21.50
2009,08,31,14,36,21.50
2009,08,31,14,37,21.60
2009,08,31,14,38,21.80
2009,08,31,14,39,21.80
2009,08,31,14,40,21.80
2009,08,31,14,41,21.80
2009,08,31,14,42,21.80
2009,08,31,14,43,21.90
2009,08,31,14,44,22.00
2009,08,31,14,45,22.10
2009,08,31,14,46,22.00
2009,08,31,14,47,21.90
2009,08,31,14,48,21.90
2009,08,31,14,49,21.90
2009,08,31,14,50,21.80
2009,08,31,14,51,21.80
2009,08,31,14,52,21.80
2009,08,31,14,53,21.80
2009,08,31,14,54,21.80
2009,08,31,14,55,21.80
2009,08,31,14,56,21.80
2009,08,31,14,57,21.80
2009,08,31,14,58,21.90
2009,08,31,14,59,22.00
2009,08,31,15,00,22.00
2009,08,31,15,01,21.90
2009,08,31,15,02,21.80
2009,08,31,15,03,21.80
2009,08,31,15,04,21.80
2009,08,31,15,05,21.80
2009,08,31,15,06,21.80
2009,08,31,15,07,21.80
2009,08,31,15,08,21.80
2009,08,31,15,09,21.90
2009,08,31,15,10,21.90
2009,08,31,15,11,21.90
2009,08,31,15,12,22.00
2009,08,31,15,13,22.10
2009,08,31,15,14,22.10
2009,08,31,15,15,22.10
2009,08,31,15,16,22.10
2009,08,31,15,17,22.20
2009,08,31,15,18,22.20
2009,08,31,15,19,22.20
2009,08,31,15,20,22.10
2009,08,31,15,21,22.00
2009,08,31,15,22,22.00
2009,08,31,15,23,22.10
2009,08,31,15,24,22.20
2009,08,31,15,25,22.20
2009,08,31,15,26,22.20
2009,08,31,15,27,22.20
2009,08,31,15,28,22.20
2009,08,31,15,29,22.30
2009,08,31,15,30,22.20
2009,08,31,15,31,22.20
2009,08,31,15,32,22.20
2009,08,31,15,33,22.20
2009,08,31,15,34,22.20
2009,08,31,15,35,22.20
2009,08,31,15,36,22.20
2009,08,31,15,37,22.10
2009,08,31,15,38,22.00
2009,08,31,15,39,21.90
2009,08,31,15,40,21.90
2009,08,31,15,41,21.90
2009,08,31,15,42,22.00
2009,08,31,15,43,22.00
2009,08,31,15,44,21.90
2009,08,31,15,45,22.00
2009,08,31,15,46,22.00
2009,08,31,15,47,22.00
2009,08,31,15,48,22.10
2009,08,31,15,49,22.20
2009,08,31,15,50,22.20
2009,08,31,15,51,22.30
2009,08,31,15,52,22.20
2009,08,31,15,53,22.10
2009,08,31,15,54,22.00
2009,08,31,15,55,22.00
2009,08,31,15,56,21.90
2009,08,31,15,57,21.80
2009,08,31,15,58,21.80
2009,08,31,15,59,21.70
2009,08,31,16,00,21.60
2009,08,31,16,01,21.50
2009,08,31,16,02,21.50
2009,08,31,16,03,21.40
2009,08,31,16,04,21.40
2009,08,31,16,05,21.50
2009,08,31,16,06,21.40
2009,08,31,16,07,21.40
2009,08,31,16,08,21.40
2009,08,31,16,09,21.30
2009,08,31,16,10,21.30
2009,08,31,16,11,21.30
2009,08,31,16,12,21.30
2009,08,31,16,13,21.40
2009,08,31,16,14,21.40
2009,08,31,16,15,21.50
2009,08,31,16,16,21.60
2009,08,31,16,17,21.60
2009,08,31,16,18,21.60
2009,08,31,16,19,21.70
2009,08,31,16,20,21.70
2009,08,31,16,21,21.60
2009,08,31,16,22,21.50
2009,08,31,16,23,21.40
2009,08,31,16,24,21.40
2009,08,31,16,25,21.40
2009,08,31,16,26,21.40
2009,08,31,16,27,21.40
2009,08,31,16,28,21.40
2009,08,31,16,29,21.30
2009,08,31,16,30,21.30
2009,08,31,16,31,21.30
2009,08,31,16,32,21.30
2009,08,31,16,33,21.30
2009,08,31,16,34,21.30
2009,08,31,16,35,21.30
2009,08,31,16,36,21.40
2009,08,31,16,37,21.50
2009,08,31,16,38,21.50
2009,08,31,16,39,21.60
2009,08,31,16,40,21.60
2009,08,31,16,41,21.60
2009,08,31,16,42,21.70
2009,08,31,16,43,21.70
2009,08,31,16,44,21.70
2009,08,31,16,45,21.70
2009,08,31,16,46,21.60
2009,08,31,16,47,21.60
2009,08,31,16,48,21.50
2009,08,31,16,49,21.50
2009,08,31,16,50,21.60
2009,08,31,16,51,21.60
2009,08,31,16,52,21.70
2009,08,31,16,53,21.70
2009,08,31,16,54,21.70
2009,08,31,16,55,21.70
2009,08,31,16,56,21.60
2009,08,31,16,57,21.60
2009,08,31,16,58,21.60
2009,08,31,16,59,21.60
2009,08,31,17,00,21.50
2009,08,31,17,01,21.40
2009,08,31,17,02,21.40
2009,08,31,17,03,21.30
2009,08,31,17,04,21.30
2009,08,31,17,05,21.30
2009,08,31,17,06,21.30
2009,08,31,17,07,21.30
2009,08,31,17,08,21.40
2009,08,31,17,09,21.40
2009,08,31,17,10,21.40
2009,08,31,17,11,21.50
2009,08,31,17,12,21.50
2009,08,31,17,13,21.50
2009,08,31,17,14,21.40
2009,08,31,17,15,21.50
2009,08,31,17,16,21.50
2009,08,31,17,17,21.60
2009,08,31,17,18,21.70
2009,08,31,17,19,21.70
2009,08,31,17,20,21.70
2009,08,31,17,21,21.70
2009,08,31,17,22,21.60
2009,08,31,17,23,21.60
2009,08,31,17,24,21.60
2009,08,31,17,25,21.60
2009,08,31,17,26,21.60
2009,08,31,17,27,21.50
2009,08,31,17,28,21.50
2009,08,31,17,29,21.40
2009,08,31,17,30,21.40
2009,08,31,17,31,21.40
2009,08,31,17,32,21.40
2009,08,31,17,33,21.40
2009,08,31,17,34,21.40
2009,08,31,17,35,21.50
2009,08,31,17,36,21.50
2009,08,31,17,37,21.60
2009,08,31,17,38,21.60
2009,08,31,17,39,21.60
2009,08,31,17,40,21.80
2009,08,31,17,41,21.90
2009,08,31,17,42,21.90
2009,08,31,17,43,21.90
2009,08,31,17,44,21.80
2009,08,31,17,45,21.80
2009,08,31,17,46,21.80
2009,08,31,17,47,21.70
2009,08,31,17,48,21.80
2009,08,31,17,49,21.80
2009,08,31,17,50,21.80
2009,08,31,17,51,21.90
2009,08,31,17,52,22.00
2009,08,31,17,53,21.90
2009,08,31,17,54,21.90
2009,08,31,17,55,21.90
2009,08,31,17,56,21.80
2009,08,31,17,57,21.80
2009,08,31,17,58,21.80
2009,08,31,17,59,21.80
2009,08,31,18,00,21.80
2009,08,31,18,01,21.70
2009,08,31,18,02,21.70
2009,08,31,18,03,21.70
2009,08,31,18,04,21.70
2009,08,31,18,05,21.70
2009,08,31,18,06,21.60
2009,08,31,18,07,21.60
2009,08,31,18,08,21.60
2009,08,31,18,09,21.60
2009,08,31,18,10,21.70
2009,08,31,18,11,21.70
2009,08,31,18,12,21.70
2009,08,31,18,13,21.70
2009,08,31,18,14,21.60
2009,08,31,18,15,21.60
2009,08,31,18,16,21.60
2009,08,31,18,17,21.60
2009,08,31,18,18,21.60
2009,08,31,18,19,21.60
2009,08,31,18,20,21.50
2009,08,31,18,21,21.50
2009,08,31,18,22,21.40
2009,08,31,18,23,21.50
2009,08,31,18,24,21.50
2009,08,31,18,25,21.50
2009,08,31,18,26,21.50
2009,08,31,18,27,21.50
2009,08,31,18,28,21.50
2009,08,31,18,29,21.50
2009,08,31,18,30,21.50
2009,08,31,18,31,21.50
2009,08,31,18,32,21.40
2009,08,31,18,33,21.50
2009,08,31,18,34,21.50
2009,08,31,18,35,21.40
2009,08,31,18,36,21.40
2009,08,31,18,37,21.40
2009,08,31,18,38,21.40
2009,08,31,18,39,21.40
2009,08,31,18,40,21.40
2009,08,31,18,41,21.20
2009,08,31,18,42,21.10
2009,08,31,18,43,21.10
2009,08,31,18,44,20.90
2009,08,31,18,45,20.80
2009,08,31,18,46,20.80
2009,08,31,18,47,20.70
2009,08,31,18,48,20.60
2009,08,31,18,49,20.40
2009,08,31,18,50,20.30
2009,08,31,18,51,20.20
2009,08,31,18,52,20.10
2009,08,31,18,53,20.00
2009,08,31,18,54,19.90
2009,08,31,18,55,19.90
2009,08,31,18,56,19.80
2009,08,31,18,57,19.80
2009,08,31,18,58,19.80
2009,08,31,18,59,19.80
2009,08,31,19,00,19.80
2009,08,31,19,01,19.80
2009,08,31,19,02,19.80
2009,08,31,19,03,19.80
2009,08,31,19,04,19.80
2009,08,31,19,05,19.80
2009,08,31,19,06,19.80
2009,08,31,19,07,19.80
2009,08,31,19,08,19.80
